• In Latvia
  • List of Countries
  • For 7 days
  • Water Temperature
  • Satellite Maps
  • Weather Map
  • Weather Widgets
  • user-avatar
    Login

    Hourly Weather Yerevan

    Today, 22 November, Wednesday

    Time Temperature Precipitation Wind Pressure Humidity
    00:00 +10°C° 0 mm 3 mps 680 mmHg 75%
    01:00 +10°C° 0.3 mm 3 mps 680 mmHg 75%
    02:00 +10°C° 0.3 mm 3 mps 680 mmHg 76%
    03:00 +10°C° 0 mm 4 mps 681 mmHg 76%
    04:00 +9°C° 0.9 mm 3 mps 681 mmHg 76%
    05:00 +9°C° 0.9 mm 3 mps 681 mmHg 77%
    06:00 +8°C° 0.9 mm 3 mps 681 mmHg 77%
    07:00 +8°C° 0.6 mm 3 mps 681 mmHg 75%
    08:00 +8°C° 0.6 mm 3 mps 681 mmHg 73%
    09:00 +8°C° 0 mm 3 mps 681 mmHg 71%
    10:00 +8°C° 0.4 mm 3 mps 681 mmHg 68%
    11:00 +8°C° 0.4 mm 3 mps 681 mmHg 66%
    12:00 +8°C° 0.4 mm 3 mps 681 mmHg 63%
    13:00 +8°C° 0.2 mm 3 mps 681 mmHg 61%
    14:00 +8°C° 0.2 mm 3 mps 682 mmHg 59%
    15:00 +8°C° 0 mm 3 mps 681 mmHg 59%
    16:00 +7°C° 0.1 mm 3 mps 682 mmHg 60%
    17:00 +5°C° 0.1 mm 3 mps 683 mmHg 62%
    18:00 +5°C° 0.1 mm 3 mps 683 mmHg 64%
    19:00 +5°C° 0.1 mm 2 mps 683 mmHg 65%
    20:00 +4°C° 0.1 mm 2 mps 684 mmHg 67%
    21:00 +5°C° 0.1 mm 1 mps 684 mmHg 68%
    22:00 +4°C° 0 mm 1 mps 684 mmHg 68%
    23:00 +4°C° 0 mm 1 mps 684 mmHg 68%

    Tomorrow, 23 November, Thursday

    Time Temperature Precipitation Wind Pressure Humidity
    00:00 +3°C° 0 mm 1 mps 685 mmHg 68%
    01:00 +3°C° 0 mm 1 mps 685 mmHg 67%
    02:00 +3°C° 0 mm 1 mps 685 mmHg 66%
    03:00 +2°C° 0 mm 1 mps 685 mmHg 64%
    04:00 +1°C° 0.1 mm 2 mps 685 mmHg 65%
    05:00 +1°C° 0.1 mm 2 mps 686 mmHg 66%
    06:00 +1°C° 0.1 mm 2 mps 686 mmHg 66%
    07:00 +2°C° 0.1 mm 2 mps 686 mmHg 65%
    08:00 +2°C° 0.1 mm 2 mps 686 mmHg 63%
    09:00 +2°C° 0.1 mm 3 mps 686 mmHg 62%
    10:00 +3°C° 0.1 mm 3 mps 686 mmHg 59%
    11:00 +3°C° 0.1 mm 3 mps 686 mmHg 55%
    12:00 +4°C° 0.1 mm 3 mps 686 mmHg 52%
    13:00 +4°C° 0.1 mm 3 mps 686 mmHg 52%
    14:00 +4°C° 0.1 mm 3 mps 686 mmHg 52%
    15:00 +4°C° 0.1 mm 3 mps 686 mmHg 52%
    16:00 +5°C° 0.2 mm 2 mps 686 mmHg 55%
    17:00 +4°C° 0.2 mm 2 mps 687 mmHg 59%
    18:00 +4°C° 0.2 mm 1 mps 687 mmHg 63%
    19:00 +4°C° 0.4 mm 1 mps 688 mmHg 67%
    20:00 +3°C° 0.4 mm 1 mps 688 mmHg 71%
    21:00 +3°C° 0.4 mm 1 mps 688 mmHg 75%
    22:00 +2°C° 0.2 mm 1 mps 688 mmHg 76%
    23:00 +2°C° 0.2 mm 1 mps 688 mmHg 78%

    Day after tomorrow, 24 November, Friday

    Time Temperature Precipitation Wind Pressure Humidity
    00:00 +2°C° 0.2 mm 1 mps 688 mmHg 80%
    01:00 +1°C° 0.1 mm 1 mps 689 mmHg 79%
    02:00 +1°C° 0.1 mm 1 mps 689 mmHg 78%
    03:00 +1°C° 0.1 mm 1 mps 689 mmHg 77%
    04:00 0°C° 0.1 mm 1 mps 689 mmHg 77%
    05:00 0°C° 0.1 mm 1 mps 689 mmHg 76%
    06:00 0°C° 0.1 mm 1 mps 689 mmHg 76%
    07:00 0°C° 0 mm 1 mps 690 mmHg 73%
    08:00 +1°C° 0 mm 1 mps 690 mmHg 70%
    09:00 +1°C° 0 mm 1 mps 690 mmHg 67%
    10:00 +2°C° 0 mm 1 mps 690 mmHg 62%
    11:00 +2°C° 0 mm 1 mps 690 mmHg 58%
    12:00 +3°C° 0 mm 1 mps 690 mmHg 54%
    13:00 +3°C° 0 mm 1 mps 690 mmHg 53%
    14:00 +3°C° 0 mm 1 mps 690 mmHg 52%
    15:00 +3°C° 0 mm 1 mps 690 mmHg 51%
    16:00 +2°C° 0 mm 1 mps 690 mmHg 54%
    17:00 +1°C° 0 mm 1 mps 691 mmHg 56%
    18:00 0°C° 0 mm 1 mps 691 mmHg 59%
    19:00 0°C° 0 mm 1 mps 691 mmHg 58%
    20:00 -3°C° 0 mm 2 mps 692 mmHg 58%
    21:00 -3°C° 0 mm 2 mps 692 mmHg 57%
    22:00 -3°C° 0 mm 2 mps 692 mmHg 57%
    23:00 -4°C° 0 mm 2 mps 693 mmHg 57%

    25 November, Saturday

    Time Temperature Precipitation Wind Pressure Humidity
    00:00 -4°C° 0 mm 2 mps 693 mmHg 57%
    01:00 -4°C° 0 mm 2 mps 693 mmHg 57%
    02:00 -5°C° 0 mm 2 mps 693 mmHg 57%
    03:00 -5°C° 0 mm 2 mps 693 mmHg 57%
    04:00 -5°C° 0 mm 2 mps 693 mmHg 57%
    05:00 -5°C° 0 mm 2 mps 694 mmHg 57%
    06:00 -5°C° 0 mm 2 mps 694 mmHg 57%
    07:00 -4°C° 0 mm 2 mps 695 mmHg 55%
    08:00 -1°C° 0 mm 1 mps 695 mmHg 52%
    09:00 0°C° 0 mm 1 mps 695 mmHg 50%
    10:00 +1°C° 0 mm 1 mps 695 mmHg 48%
    11:00 +2°C° 0 mm 1 mps 695 mmHg 46%
    12:00 +2°C° 0 mm 2 mps 695 mmHg 44%
    13:00 +3°C° 0 mm 1 mps 695 mmHg 44%
    14:00 +4°C° 0 mm 1 mps 694 mmHg 45%
    15:00 +4°C° 0 mm 1 mps 694 mmHg 45%
    16:00 +1°C° 0 mm 2 mps 695 mmHg 46%
    17:00 -1°C° 0 mm 2 mps 695 mmHg 48%
    18:00 -2°C° 0 mm 2 mps 695 mmHg 50%
    19:00 -2°C° 0 mm 2 mps 695 mmHg 49%
    20:00 -3°C° 0 mm 2 mps 696 mmHg 49%
    21:00 -1°C° 0 mm 1 mps 696 mmHg 49%
    22:00 -1°C° 0 mm 1 mps 696 mmHg 49%
    23:00 -1°C° 0 mm 1 mps 696 mmHg 49%

    26 November, Sunday

    Time Temperature Precipitation Wind Pressure Humidity
    00:00 -1°C° 0 mm 1 mps 696 mmHg 48%
    01:00 -1°C° 0 mm 1 mps 695 mmHg 48%
    02:00 -1°C° 0 mm 1 mps 695 mmHg 48%
    03:00 -2°C° 0 mm 1 mps 695 mmHg 48%
    04:00 -2°C° 0 mm 1 mps 695 mmHg 48%
    05:00 -2°C° 0 mm 1 mps 695 mmHg 48%
    06:00 -2°C° 0 mm 1 mps 695 mmHg 48%
    07:00 0°C° 0 mm 1 mps 695 mmHg 46%
    08:00 +1°C° 0 mm 1 mps 696 mmHg 44%
    09:00 +2°C° 0 mm 1 mps 696 mmHg 42%
    10:00 +3°C° 0 mm 1 mps 696 mmHg 40%
    11:00 +5°C° 0 mm 1 mps 695 mmHg 38%
    12:00 +6°C° 0 mm 1 mps 695 mmHg 35%
    13:00 +6°C° 0 mm 1 mps 694 mmHg 36%
    14:00 +6°C° 0 mm 1 mps 694 mmHg 36%
    15:00 +6°C° 0 mm 1 mps 694 mmHg 37%
    16:00 +5°C° 0 mm 1 mps 694 mmHg 39%
    17:00 +3°C° 0 mm 1 mps 694 mmHg 41%
    18:00 +2°C° 0 mm 1 mps 694 mmHg 43%
    19:00 +1°C° 0 mm 1 mps 695 mmHg 43%
    20:00 +1°C° 0 mm 1 mps 695 mmHg 43%
    21:00 +1°C° 0 mm 1 mps 695 mmHg 43%
    22:00 +1°C° 0 mm 1 mps 695 mmHg 42%
    23:00 0°C° 0 mm 1 mps 695 mmHg 42%

    27 November, Monday

    Time Temperature Precipitation Wind Pressure Humidity
    00:00 0°C° 0 mm 1 mps 695 mmHg 41%
    01:00 0°C° 0 mm 1 mps 695 mmHg 40%
    02:00 0°C° 0 mm 1 mps 695 mmHg 39%
    03:00 0°C° 0 mm 1 mps 695 mmHg 39%
    04:00 0°C° 0 mm 1 mps 695 mmHg 38%
    05:00 -1°C° 0 mm 1 mps 694 mmHg 38%
    06:00 -1°C° 0 mm 1 mps 694 mmHg 37%
    07:00 +1°C° 0 mm 1 mps 695 mmHg 37%
    08:00 +2°C° 0 mm 1 mps 695 mmHg 36%
    09:00 +4°C° 0 mm 1 mps 695 mmHg 35%
    10:00 +5°C° 0 mm 1 mps 695 mmHg 34%
    11:00 +6°C° 0 mm 1 mps 694 mmHg 34%
    12:00 +7°C° 0 mm 1 mps 694 mmHg 33%
    13:00 +8°C° 0 mm 1 mps 693 mmHg 33%
    14:00 +8°C° 0 mm 1 mps 693 mmHg 34%
    15:00 +8°C° 0 mm 1 mps 693 mmHg 34%
    16:00 +6°C° 0 mm 1 mps 693 mmHg 35%
    17:00 +5°C° 0 mm 1 mps 693 mmHg 36%
    18:00 +3°C° 0 mm 1 mps 693 mmHg 37%
    19:00 +3°C° 0 mm 1 mps 693 mmHg 37%
    20:00 +3°C° 0 mm 1 mps 693 mmHg 37%
    21:00 +2°C° 0 mm 1 mps 693 mmHg 36%
    22:00 +2°C° 0 mm 1 mps 693 mmHg 36%
    23:00 +2°C° 0 mm 1 mps 693 mmHg 36%
    Show more